Weather History for KDTL - March, 2014

Change the Weather History Date:

Tuesday, March 4, 2014

  Actual Average Record
Temperature  
Mean Temperature 11 °F -  
Max Temperature 17 °F 29 °F 50 °F (1987)
Min Temperature 5 °F 8 °F -26 °F (1952)
Degree Days  
Heating Degree Days 54    
Moisture  
Dew Point 2 °F    
Average Humidity 73    
Maximum Humidity 85    
Minimum Humidity 53    
Precipitation  
Precipitation 0.00 in - - ()
Sea Level Pressure  
Sea Level Pressure 30.18 in    
Wind  
Wind Speed 5 mph (East)    
Max Wind Speed 8 mph    
Max Gust Speed 16 mph    
Visibility 10 miles    
Events Snow    
Averages and records for this station are not official NWS values.
T = Trace of Precipitation, MM = Missing Value Source: NWS Daily Summary

Daily Weather History Graph

Daily Weather History Graph

Search for Another Location

Airport or City:

Trip Planner

Search our weather history database for the weather conditions in past years. The results will help you decide how hot, cold, wet, or windy it might be!

Date:

Astronomy

Mar. 04, 2014 Rise Set
Actual Time 6:57 AM CST 6:13 PM CST
Civil Twilight 6:27 AM CST 6:44 PM CST
Nautical Twilight 5:52 AM CST 7:19 PM CST
Astronomical Twilight 5:16 AM CST 7:54 PM CST
Moon 8:28 AM CST (3/4) 10:39 PM CST (3/4)
Length of Visible Light 12h 16m
Length of Day
11h 16m
Waxing Crescent, 15% of the Moon is Illuminated
Mar 4
Waxing Crescent
Mar 8
First Quarter
Mar 16
Full
Mar 23
Last Quarter
Mar 30
New

Hourly Weather History & Observations

Time (CST) Temp. Windchill Dew Point Humidity Pressure Visibility Wind Dir Wind Speed Gust Speed Precip Events Conditions
12:15 AM 5.0 °F -5.6 °F 1.4 °F 85% 30.15 in 2.5 mi ESE 5.8 mph - N/A   Mostly Cloudy
12:34 AM 5.0 °F -5.6 °F 1.4 °F 85% 30.15 in 4.0 mi SE 5.8 mph - N/A Snow Light Snow
12:55 AM 5.0 °F -6.9 °F 1.4 °F 85% 30.14 in 10.0 mi SE 6.9 mph - N/A Snow Light Snow
1:14 AM 5.0 °F -6.9 °F 1.4 °F 85% 30.14 in 5.0 mi SE 6.9 mph - N/A Snow Light Snow
1:35 AM 5.0 °F -4.1 °F 1.4 °F 85% 30.15 in 7.0 mi ESE 4.6 mph - N/A Snow Light Snow
1:55 AM 5.0 °F -5.6 °F 1.4 °F 85% 30.15 in 10.0 mi SE 5.8 mph - N/A Snow Light Snow
2:14 AM 5.0 °F -5.6 °F 1.4 °F 85% 30.14 in 10.0 mi SE 5.8 mph - N/A Snow Light Snow
2:35 AM 5.0 °F -8.1 °F 1.4 °F 85% 30.13 in 10.0 mi SE 8.1 mph - N/A   Scattered Clouds
2:55 AM 5.0 °F -6.9 °F 1.4 °F 85% 30.13 in 10.0 mi SE 6.9 mph - N/A   Scattered Clouds
3:14 AM 5.0 °F -4.1 °F 1.4 °F 85% 30.13 in 10.0 mi SE 4.6 mph - N/A   Mostly Cloudy
3:35 AM 5.0 °F - 1.4 °F 85% 30.14 in 10.0 mi Calm Calm - N/A   Mostly Cloudy
3:55 AM 5.0 °F -2.1 °F 1.4 °F 85% 30.14 in 10.0 mi SE 3.5 mph - N/A   Overcast
4:14 AM 5.0 °F -2.1 °F 1.4 °F 85% 30.13 in 10.0 mi ESE 3.5 mph - N/A   Mostly Cloudy
4:35 AM 5.0 °F - 1.4 °F 85% 30.13 in 10.0 mi Calm Calm - N/A   Scattered Clouds
4:55 AM 5.0 °F -5.6 °F 1.4 °F 85% 30.14 in 10.0 mi East 5.8 mph - N/A Snow Light Snow
5:14 AM 5.0 °F -2.1 °F 1.4 °F 85% 30.14 in 10.0 mi East 3.5 mph - N/A Snow Light Snow
5:35 AM 5.0 °F -2.1 °F 1.4 °F 85% 30.15 in 10.0 mi East 3.5 mph - N/A   Scattered Clouds
5:55 AM 5.0 °F -5.6 °F 1.4 °F 85% 30.14 in 10.0 mi ENE 5.8 mph - N/A   Scattered Clouds
6:14 AM 5.0 °F -2.1 °F 1.4 °F 85% 30.14 in 10.0 mi ENE 3.5 mph - N/A   Scattered Clouds
6:35 AM 5.0 °F -2.1 °F 1.4 °F 85% 30.14 in 10.0 mi ENE 3.5 mph - N/A   Mostly Cloudy
6:55 AM 5.0 °F -2.1 °F 1.4 °F 85% 30.14 in 10.0 mi ENE 3.5 mph - N/A   Mostly Cloudy
7:14 AM 5.0 °F -2.1 °F 1.4 °F 85% 30.14 in 10.0 mi East 3.5 mph - N/A   Mostly Cloudy
7:35 AM 5.0 °F -2.1 °F 1.4 °F 85% 30.14 in 10.0 mi East 3.5 mph - N/A   Scattered Clouds
7:54 AM 5.0 °F -2.1 °F 1.4 °F 85% 30.14 in 10.0 mi East 3.5 mph - N/A   Clear
8:15 AM 6.8 °F - 1.4 °F 79% 30.16 in 10.0 mi Calm Calm - N/A   Scattered Clouds
8:35 AM 6.8 °F -2.0 °F 1.4 °F 79% 30.17 in 10.0 mi ENE 4.6 mph - N/A   Scattered Clouds
8:54 AM 6.8 °F -5.9 °F 1.4 °F 79% 30.17 in 10.0 mi ENE 8.1 mph - N/A   Clear
9:15 AM 6.8 °F -3.5 °F 1.4 °F 79% 30.17 in 10.0 mi East 5.8 mph - N/A   Scattered Clouds
9:35 AM 8.6 °F -2.6 °F 1.4 °F 73% 30.17 in 10.0 mi East 6.9 mph - N/A   Clear
9:54 AM 8.6 °F 0.1 °F 1.4 °F 73% 30.16 in 10.0 mi East 4.6 mph - N/A   Clear
10:15 AM 8.6 °F -1.3 °F 1.4 °F 73% 30.16 in 10.0 mi East 5.8 mph - N/A   Clear
10:35 AM 8.6 °F 2.0 °F 1.4 °F 73% 30.17 in 10.0 mi East 3.5 mph - N/A   Clear
10:54 AM 10.4 °F 0.8 °F 1.4 °F 67% 30.17 in 10.0 mi SE 5.8 mph - N/A   Scattered Clouds
11:15 AM 10.4 °F 2.2 °F 3.2 °F 73% 30.18 in 10.0 mi SSE 4.6 mph - N/A   Scattered Clouds
11:35 AM 12.2 °F 1.7 °F 3.2 °F 67% 30.17 in 10.0 mi ESE 6.9 mph - N/A   Clear
11:54 AM 12.2 °F 2.9 °F 3.2 °F 67% 30.17 in 10.0 mi SE 5.8 mph - N/A   Clear
12:15 PM 12.2 °F 1.7 °F 1.4 °F 62% 30.17 in 10.0 mi SE 6.9 mph - N/A   Clear
12:34 PM 14.0 °F 5.1 °F 3.2 °F 62% 30.17 in 10.0 mi SE 5.8 mph - N/A   Clear
12:55 PM 14.0 °F 6.5 °F 3.2 °F 62% 30.17 in 10.0 mi SE 4.6 mph - N/A   Clear
1:15 PM 14.0 °F 8.2 °F 1.4 °F 57% 30.16 in 10.0 mi ESE 3.5 mph - N/A   Clear
1:34 PM 14.0 °F 8.2 °F 3.2 °F 62% 30.16 in 10.0 mi East 3.5 mph - N/A   Clear
1:55 PM 14.0 °F 5.1 °F 3.2 °F 62% 30.15 in 10.0 mi East 5.8 mph - N/A   Clear
2:15 PM 14.0 °F 8.2 °F 1.4 °F 57% 30.15 in 10.0 mi East 3.5 mph - N/A   Clear
2:34 PM 15.8 °F 7.2 °F 3.2 °F 58% 30.15 in 10.0 mi SE 5.8 mph - N/A   Clear
2:55 PM 17.6 °F 9.3 °F 3.2 °F 53% 30.15 in 10.0 mi East 5.8 mph - N/A   Clear
3:15 PM 17.6 °F 7.3 °F 3.2 °F 53% 30.15 in 10.0 mi ENE 8.1 mph - N/A   Clear
3:34 PM 17.6 °F 7.3 °F 3.2 °F 53% 30.15 in 10.0 mi ENE 8.1 mph 16.1 mph N/A   Clear
3:55 PM 17.6 °F 8.2 °F 3.2 °F 53% 30.16 in 10.0 mi ENE 6.9 mph - N/A   Clear
4:15 PM 17.6 °F 9.3 °F 3.2 °F 53% 30.17 in 10.0 mi NE 5.8 mph - N/A   Clear
4:34 PM 17.6 °F 8.2 °F 3.2 °F 53% 30.16 in 10.0 mi ENE 6.9 mph - N/A   Clear
4:55 PM 17.6 °F 9.3 °F 3.2 °F 53% 30.17 in 10.0 mi East 5.8 mph - N/A   Clear
5:15 PM 17.6 °F 10.7 °F 3.2 °F 53% 30.17 in 10.0 mi East 4.6 mph - N/A   Clear
5:34 PM 12.2 °F 6.1 °F 3.2 °F 67% 30.18 in 10.0 mi NNW 3.5 mph - N/A   Clear
5:55 PM 12.2 °F 4.3 °F 3.2 °F 67% 30.18 in 10.0 mi NNW 4.6 mph - N/A   Clear
6:15 PM 10.4 °F 4.0 °F 3.2 °F 73% 30.20 in 10.0 mi NW 3.5 mph - N/A   Clear
6:34 PM 10.4 °F - 3.2 °F 73% 30.21 in 10.0 mi Calm Calm - N/A   Clear
6:55 PM 8.6 °F - 3.2 °F 79% 30.22 in 10.0 mi Calm Calm - N/A   Clear
7:15 PM 8.6 °F - 3.2 °F 79% 30.23 in 10.0 mi Calm Calm - N/A   Clear
7:34 PM 8.6 °F - 3.2 °F 79% 30.24 in 10.0 mi Calm Calm - N/A   Clear
7:55 PM 10.4 °F - 3.2 °F 73% 30.24 in 10.0 mi Calm Calm - N/A   Clear
8:15 PM 8.6 °F - 3.2 °F 79% 30.25 in 10.0 mi Calm Calm - N/A   Clear
8:34 PM 10.4 °F 4.0 °F 3.2 °F 73% 30.25 in 10.0 mi East 3.5 mph - N/A   Clear
8:54 PM 10.4 °F - 3.2 °F 73% 30.25 in 10.0 mi Calm Calm - N/A   Clear
9:15 PM 10.4 °F - 1.4 °F 67% 30.26 in 10.0 mi Calm Calm - N/A   Clear
9:34 PM 8.6 °F - 1.4 °F 73% 30.26 in 10.0 mi Calm Calm - N/A   Clear
9:54 PM 10.4 °F - 1.4 °F 67% 30.27 in 10.0 mi Calm Calm - N/A   Clear
10:15 PM 10.4 °F - 1.4 °F 67% 30.27 in 10.0 mi Calm Calm - N/A   Clear
10:34 PM 10.4 °F - 3.2 °F 73% 30.27 in 10.0 mi Calm Calm - N/A   Clear
10:54 PM 8.6 °F - 1.4 °F 73% 30.28 in 10.0 mi Calm Calm - N/A   Clear
11:15 PM 8.6 °F 2.0 °F 1.4 °F 73% 30.28 in 10.0 mi NNE 3.5 mph - N/A   Clear
11:34 PM 8.6 °F -1.3 °F 3.2 °F 79% 30.27 in 10.0 mi ENE 5.8 mph - N/A   Clear
11:55 PM 10.4 °F 2.2 °F 3.2 °F 73% 30.28 in 10.0 mi NE 4.6 mph - N/A   Clear